CDT,Max TemperatureF,Mean TemperatureF,Min TemperatureF,Max Dew PointF,MeanDew PointF,Min DewpointF,Max Humidity, Mean Humidity, Min Humidity, Max Sea Level PressureIn, Mean Sea Level PressureIn, Min Sea Level PressureIn, Max VisibilityMiles, Mean VisibilityMiles, Min VisibilityMiles, Max Wind SpeedMPH, Mean Wind SpeedMPH, Max Gust SpeedMPH,PrecipitationIn, CloudCover, Events, WindDirDegrees
2013-8-1,78,68,59,61,52,45,88,58,30,30.05,30.00,29.93,10,10,10,10,5,20,0.00,1,,290
2013-8-2,80,71,62,63,56,48,94,62,34,30.00,29.92,29.87,10,10,10,12,4,9,0.00,3,Rain,318
2013-8-3,77,67,57,55,48,39,82,54,27,30.18,30.10,30.00,10,10,7,10,5,17,0.00,1,,342
2013-8-4,77,66,55,54,49,41,82,57,28,30.24,30.18,30.12,10,10,10,8,4,,0.00,2,,43
2013-8-5,69,64,59,64,60,52,94,83,68,30.12,29.97,29.87,10,8,1,14,7,22,0.00,6,Rain,160
2013-8-6,82,75,68,70,67,64,94,79,54,29.91,29.85,29.82,10,7,0,10,3,,0.00,6,Fog,203
2013-8-7,80,71,62,72,63,57,94,73,51,30.00,29.89,29.79,10,9,3,16,7,22,0.00,2,,310
2013-8-8,78,69,60,61,57,54,88,66,42,30.07,30.02,30.00,10,10,7,9,5,,0.00,3,,71
2013-8-9,78,69,60,63,57,50,94,67,36,30.10,30.03,30.00,10,10,7,9,3,16,0.00,3,,280
2013-8-10,77,66,55,55,51,45,88,61,34,30.19,30.15,30.11,10,10,10,10,3,,0.00,2,,321
2013-8-11,78,68,59,64,59,54,94,74,51,30.15,30.10,30.04,10,10,2,10,3,16,0.00,6,Rain,199
2013-8-12,80,71,62,66,59,52,94,69,39,30.02,29.99,29.95,10,8,2,10,3,17,0.00,4,,332
2013-8-13,71,64,57,55,47,39,88,58,33,30.18,30.12,30.02,10,10,10,13,6,17,0.00,3,,16
2013-8-14,77,64,50,50,46,41,88,57,28,30.24,30.19,30.15,10,10,10,6,1,,0.00,2,,325
2013-8-15,77,67,57,54,49,43,88,57,29,30.18,30.15,30.12,10,10,7,9,2,,0.00,6,,260
2013-8-16,80,68,55,55,49,41,88,54,24,30.21,30.19,30.15,10,10,5,7,3,,0.00,4,,349
2013-8-17,82,68,55,55,49,43,88,48,25,30.26,30.22,30.18,10,10,10,9,2,,0.00,1,,101
2013-8-18,82,70,59,57,51,45,77,53,26,30.23,30.17,30.12,10,10,7,9,4,,0.00,1,,168
2013-8-19,80,70,59,61,57,52,88,64,37,30.12,30.09,30.05,10,10,10,12,5,16,0.00,1,,198
2013-8-20,87,74,62,64,61,55,94,65,33,30.09,30.05,30.01,10,9,4,15,7,20,0.00,2,,173
2013-8-21,89,78,68,70,65,61,88,64,38,30.06,30.02,29.97,10,10,7,18,8,26,0.00,4,Rain,201
2013-8-22,78,73,68,70,66,63,94,82,61,30.15,30.08,30.00,10,9,2,23,3,31,0.00,5,Rain,216
2013-8-23,82,72,62,64,57,46,94,63,30,30.21,30.17,30.13,10,8,0,12,3,,0.00,1,Fog,137
2013-8-24,84,72,60,66,59,50,78,65,48,30.25,30.21,30.17,10,10,10,13,7,17,0.00,2,,149
2013-8-25,89,79,69,66,65,61,88,64,40,30.22,30.17,30.12,10,10,7,17,10,23,0.00,0,,195
2013-8-26,91,80,69,72,68,64,83,68,52,30.14,30.08,29.99,10,10,7,15,8,21,0.00,0,,205
2013-8-27,95,83,71,72,69,66,88,64,41,30.00,29.92,29.85,10,10,10,17,8,24,0.00,0,,216
2013-8-28,86,80,73,73,70,68,94,77,55,30.07,29.99,29.89,10,9,2,9,5,,0.00,3,,57
2013-8-29,87,78,68,68,65,63,94,69,43,30.10,30.05,29.99,10,9,2,8,6,,0.00,0,,139
2013-8-30,95,82,69,73,70,66,94,71,44,29.98,29.88,29.80,10,8,1,13,6,18,0.00,3,,188
2013-8-31,82,73,64,68,64,61,94,74,54,29.90,29.86,29.80,10,10,7,12,6,17,0.00,5,,91